Time,TemperatureF,DewpointF,PressureIn,WindDirection,WindDirectionDegrees,WindSpeedMPH,WindSpeedGustMPH,Humidity,HourlyPrecipIn,Conditions,Clouds,dailyrainin,SoftwareType,DateUTC
2013-02-04 00:02:00,47.1,16.5,28.79,South,189,3.1,3.1,29,0.00,,---,0.00,VWS V14.01,2013-02-04 06:02:00,
2013-02-04 00:07:00,47.3,16.7,28.79,SW,222,3.1,8.3,29,0.00,,---,0.00,VWS V14.01,2013-02-04 06:07:00,
2013-02-04 00:14:00,47.3,16.7,28.79,WSW,246,6.3,6.3,29,0.00,,---,0.00,VWS V14.01,2013-02-04 06:14:00,
2013-02-04 00:19:00,47.3,16.7,28.77,SW,227,8.7,8.7,29,0.00,,---,0.00,VWS V14.01,2013-02-04 06:19:00,
2013-02-04 00:25:00,47.5,16.8,28.77,ESE,114,4.0,4.0,29,0.00,,---,0.00,VWS V14.01,2013-02-04 06:25:00,
2013-02-04 00:30:00,47.5,16.8,28.77,West,271,0.0,0.0,29,0.00,,---,0.00,VWS V14.01,2013-02-04 06:30:00,
2013-02-04 00:36:00,47.5,16.8,28.77,South,189,4.0,4.0,29,0.00,,---,0.00,VWS V14.01,2013-02-04 06:36:00,
2013-02-04 00:41:00,47.5,16.8,28.77,WNW,282,6.3,6.3,29,0.00,,---,0.00,VWS V14.01,2013-02-04 06:41:00,
2013-02-04 00:46:00,47.5,16.8,28.77,SW,228,5.8,5.8,29,0.00,,---,0.00,VWS V14.01,2013-02-04 06:46:00,
2013-02-04 00:52:00,47.5,16.8,28.77,WNW,300,2.7,2.7,29,0.00,,---,0.00,VWS V14.01,2013-02-04 06:52:00,
2013-02-04 00:57:00,47.5,16.8,28.77,SW,224,2.7,2.7,29,0.00,,---,0.00,VWS V14.01,2013-02-04 06:57:00,
2013-02-04 01:03:00,47.7,17.0,28.77,SW,214,3.6,4.9,29,0.00,,---,0.00,VWS V14.01,2013-02-04 07:03:00,
2013-02-04 01:08:00,47.7,17.0,28.77,WSW,249,2.7,2.7,29,0.00,,---,0.00,VWS V14.01,2013-02-04 07:08:00,
2013-02-04 01:14:00,47.5,16.8,28.77,NNW,330,5.4,5.4,29,0.00,,---,0.00,VWS V14.01,2013-02-04 07:14:00,
2013-02-04 01:19:00,47.5,16.8,28.77,WNW,283,3.6,5.8,29,0.00,,---,0.00,VWS V14.01,2013-02-04 07:19:00,
2013-02-04 01:25:00,47.5,16.8,28.77,SSW,193,2.7,2.7,29,0.00,,---,0.00,VWS V14.01,2013-02-04 07:25:00,
2013-02-04 01:30:00,47.8,17.1,28.77,SSW,199,5.4,5.4,29,0.00,,---,0.00,VWS V14.01,2013-02-04 07:30:00,
2013-02-04 01:36:00,47.7,17.0,28.74,NNW,328,4.9,5.8,29,0.00,,---,0.00,VWS V14.01,2013-02-04 07:36:00,
2013-02-04 01:42:00,47.7,17.0,28.74,WNW,294,8.3,8.3,29,0.00,,---,0.00,VWS V14.01,2013-02-04 07:42:00,
2013-02-04 01:47:00,47.7,17.0,28.74,WSW,241,6.3,6.3,29,0.00,,---,0.00,VWS V14.01,2013-02-04 07:47:00,
2013-02-04 01:53:00,47.5,16.8,28.74,West,262,2.7,2.7,29,0.00,,---,0.00,VWS V14.01,2013-02-04 07:53:00,
2013-02-04 01:58:00,47.3,17.5,28.74,WSW,249,2.7,2.7,30,0.00,,---,0.00,VWS V14.01,2013-02-04 07:58:00,
2013-02-04 02:04:00,47.3,17.5,28.74,ESE,113,2.2,2.2,30,0.00,,---,0.00,VWS V14.01,2013-02-04 08:04:00,
2013-02-04 02:10:00,47.3,17.5,28.74,WSW,251,5.8,5.8,30,0.00,,---,0.00,VWS V14.01,2013-02-04 08:10:00,
2013-02-04 02:15:00,47.3,17.5,28.74,SE,126,0.0,0.0,30,0.00,,---,0.00,VWS V14.01,2013-02-04 08:15:00,
2013-02-04 02:20:00,47.3,17.5,28.74,NNW,342,0.0,4.9,30,0.00,,---,0.00,VWS V14.01,2013-02-04 08:20:00,
2013-02-04 02:25:00,47.1,17.3,28.74,SSE,151,0.0,3.1,30,0.00,,---,0.00,VWS V14.01,2013-02-04 08:25:00,
2013-02-04 02:31:00,47.1,17.3,28.74,ESE,111,0.0,0.0,30,0.00,,---,0.00,VWS V14.01,2013-02-04 08:31:00,
2013-02-04 02:36:00,46.4,16.7,28.77,SSW,202,0.0,0.0,30,0.00,,---,0.00,VWS V14.01,2013-02-04 08:36:00,
2013-02-04 02:42:00,46.0,17.1,28.77,SSW,204,0.0,0.0,31,0.00,,---,0.00,VWS V14.01,2013-02-04 08:42:00,
2013-02-04 02:48:00,45.9,17.0,28.77,North,357,0.0,0.0,31,0.00,,---,0.00,VWS V14.01,2013-02-04 08:48:00,
2013-02-04 02:53:00,45.1,16.3,28.77,North,1,0.0,0.0,31,0.00,,---,0.00,VWS V14.01,2013-02-04 08:53:00,
2013-02-04 02:58:00,45.1,16.3,28.77,NNW,344,0.0,0.0,31,0.00,,---,0.00,VWS V14.01,2013-02-04 08:58:00,
2013-02-04 03:03:00,44.6,16.6,28.77,NNE,13,0.0,0.0,32,0.00,,---,0.00,VWS V14.01,2013-02-04 09:03:00,
2013-02-04 03:09:00,44.2,16.3,28.77,NNE,13,0.0,0.0,32,0.00,,---,0.00,VWS V14.01,2013-02-04 09:09:00,
2013-02-04 03:14:00,44.2,16.3,28.77,NNE,13,0.0,0.0,32,0.00,,---,0.00,VWS V14.01,2013-02-04 09:14:00,
2013-02-04 03:19:00,43.3,15.5,28.77,NNE,13,0.0,0.0,32,0.00,,---,0.00,VWS V14.01,2013-02-04 09:19:00,
2013-02-04 03:24:00,42.4,15.4,28.77,NNE,13,0.0,0.0,33,0.00,,---,0.00,VWS V14.01,2013-02-04 09:24:00,
2013-02-04 03:29:00,41.9,15.6,28.77,NNE,13,0.0,0.0,34,0.00,,---,0.00,VWS V14.01,2013-02-04 09:29:00,
2013-02-04 03:35:00,41.7,15.4,28.77,NNE,13,0.0,0.0,34,0.00,,---,0.00,VWS V14.01,2013-02-04 09:35:00,
2013-02-04 03:41:00,41.0,15.5,28.77,NNE,13,0.0,0.0,35,0.00,,---,0.00,VWS V14.01,2013-02-04 09:41:00,
2013-02-04 03:46:00,40.8,15.9,28.77,NNE,13,0.0,0.0,36,0.00,,---,0.00,VWS V14.01,2013-02-04 09:46:00,
2013-02-04 03:52:00,40.5,15.6,28.77,NNE,13,0.0,0.0,36,0.00,,---,0.00,VWS V14.01,2013-02-04 09:52:00,
2013-02-04 03:58:00,39.6,16.1,28.77,NNE,13,0.0,0.0,38,0.00,,---,0.00,VWS V14.01,2013-02-04 09:58:00,
2013-02-04 04:03:00,39.4,15.9,28.77,NNE,13,0.0,0.0,38,0.00,,---,0.00,VWS V14.01,2013-02-04 10:03:00,
2013-02-04 04:09:00,39.0,16.2,28.77,NNE,13,0.0,0.0,39,0.00,,---,0.00,VWS V14.01,2013-02-04 10:09:00,
2013-02-04 04:14:00,38.8,16.6,28.77,NNE,13,0.0,0.0,40,0.00,,---,0.00,VWS V14.01,2013-02-04 10:14:00,
2013-02-04 04:20:00,38.1,15.9,28.77,NNE,13,0.0,0.0,40,0.00,,---,0.00,VWS V14.01,2013-02-04 10:20:00,
2013-02-04 04:26:00,37.8,15.6,28.77,NNE,13,0.0,0.0,40,0.00,,---,0.00,VWS V14.01,2013-02-04 10:26:00,
2013-02-04 04:31:00,37.2,15.7,28.77,NNE,13,0.0,0.0,41,0.00,,---,0.00,VWS V14.01,2013-02-04 10:31:00,
2013-02-04 04:37:00,36.3,14.9,28.77,NNE,13,0.0,0.0,41,0.00,,---,0.00,VWS V14.01,2013-02-04 10:37:00,
2013-02-04 04:42:00,36.0,14.6,28.77,NNE,13,0.0,0.0,41,0.00,,---,0.00,VWS V14.01,2013-02-04 10:42:00,
2013-02-04 04:48:00,35.8,14.4,28.77,NNE,13,0.0,0.0,41,0.00,,---,0.00,VWS V14.01,2013-02-04 10:48:00,
2013-02-04 04:54:00,35.8,14.4,28.77,NNE,13,0.0,0.0,41,0.00,,---,0.00,VWS V14.01,2013-02-04 10:54:00,
2013-02-04 04:59:00,35.1,15.4,28.77,NNE,13,0.0,0.0,44,0.00,,---,0.00,VWS V14.01,2013-02-04 10:59:00,
2013-02-04 05:04:00,34.9,15.2,28.77,NNE,13,0.0,0.0,44,0.00,,---,0.00,VWS V14.01,2013-02-04 11:04:00,
2013-02-04 05:09:00,34.5,15.9,28.77,NNE,13,0.0,0.0,46,0.00,,---,0.00,VWS V14.01,2013-02-04 11:09:00,
2013-02-04 05:14:00,34.3,16.2,28.77,NNE,13,0.0,0.0,47,0.00,,---,0.00,VWS V14.01,2013-02-04 11:14:00,
2013-02-04 05:20:00,33.8,16.2,28.77,NNE,13,0.0,0.0,48,0.00,,---,0.00,VWS V14.01,2013-02-04 11:20:00,
2013-02-04 05:26:00,33.3,15.7,28.77,NNE,13,0.0,0.0,48,0.00,,---,0.00,VWS V14.01,2013-02-04 11:26:00,
2013-02-04 05:31:00,33.1,15.5,28.77,NNE,13,0.0,0.0,48,0.00,,---,0.00,VWS V14.01,2013-02-04 11:31:00,
2013-02-04 05:37:00,32.5,15.0,28.77,NNE,13,0.0,0.0,48,0.00,,---,0.00,VWS V14.01,2013-02-04 11:37:00,
2013-02-04 05:42:00,32.0,14.6,28.77,NNE,13,0.0,0.0,48,0.00,,---,0.00,VWS V14.01,2013-02-04 11:42:00,
2013-02-04 05:48:00,31.8,14.9,28.77,NNE,13,0.0,0.0,49,0.00,,---,0.00,VWS V14.01,2013-02-04 11:48:00,
2013-02-04 05:53:00,31.8,15.8,28.77,NNE,13,0.0,0.0,51,0.00,,---,0.00,VWS V14.01,2013-02-04 11:53:00,
2013-02-04 05:58:00,31.5,15.4,28.77,NNE,13,0.0,0.0,51,0.00,,---,0.00,VWS V14.01,2013-02-04 11:58:00,
2013-02-04 06:04:00,31.1,15.1,28.77,NNE,13,0.0,0.0,51,0.00,,---,0.00,VWS V14.01,2013-02-04 12:04:00,
2013-02-04 06:09:00,30.7,15.2,28.77,NNE,13,0.0,0.0,52,0.00,,---,0.00,VWS V14.01,2013-02-04 12:09:00,
2013-02-04 06:15:00,30.7,15.2,28.77,NNE,13,0.0,0.0,52,0.00,,---,0.00,VWS V14.01,2013-02-04 12:15:00,
2013-02-04 06:20:00,30.2,15.1,28.77,NNE,13,0.0,0.0,53,0.00,,---,0.00,VWS V14.01,2013-02-04 12:20:00,
2013-02-04 06:26:00,30.2,15.1,28.77,NNE,13,0.0,0.0,53,0.00,,---,0.00,VWS V14.01,2013-02-04 12:26:00,
2013-02-04 06:32:00,29.5,14.5,28.77,NNE,13,0.0,0.0,53,0.00,,---,0.00,VWS V14.01,2013-02-04 12:32:00,
2013-02-04 06:37:00,29.3,14.3,28.77,NNE,13,0.0,0.0,53,0.00,,---,0.00,VWS V14.01,2013-02-04 12:37:00,
2013-02-04 06:43:00,29.3,14.7,28.79,NNE,13,0.0,0.0,54,0.00,,---,0.00,VWS V14.01,2013-02-04 12:43:00,
2013-02-04 06:48:00,29.3,14.7,28.79,NNE,13,0.0,0.0,54,0.00,,---,0.00,VWS V14.01,2013-02-04 12:48:00,
2013-02-04 06:53:00,29.3,14.7,28.79,NNE,13,0.0,0.0,54,0.00,,---,0.00,VWS V14.01,2013-02-04 12:53:00,
2013-02-04 06:58:00,28.6,14.5,28.79,NNE,13,0.0,0.0,55,0.00,,---,0.00,VWS V14.01,2013-02-04 12:58:00,
2013-02-04 07:03:00,28.2,14.1,28.79,NNE,13,0.0,0.0,55,0.00,,---,0.00,VWS V14.01,2013-02-04 13:03:00,
2013-02-04 07:09:00,28.2,14.6,28.79,NNE,13,0.0,0.0,56,0.00,,---,0.00,VWS V14.01,2013-02-04 13:09:00,
2013-02-04 07:15:00,28.2,14.6,28.79,NNE,13,0.0,0.0,56,0.00,,---,0.00,VWS V14.01,2013-02-04 13:15:00,
2013-02-04 07:21:00,28.8,15.9,28.82,North,353,0.0,0.0,58,0.00,,---,0.00,VWS V14.01,2013-02-04 13:21:00,
2013-02-04 07:26:00,30.9,21.6,28.82,East,98,0.0,0.0,68,0.00,,---,0.00,VWS V14.01,2013-02-04 13:26:00,
2013-02-04 07:31:00,32.7,23.3,28.82,NE,40,0.0,0.0,68,0.00,,---,0.00,VWS V14.01,2013-02-04 13:31:00,
2013-02-04 07:36:00,34.0,22.0,28.82,NE,39,0.0,5.8,61,0.00,,---,0.00,VWS V14.01,2013-02-04 13:36:00,
2013-02-04 07:41:00,34.7,21.5,28.82,NE,39,0.0,0.0,58,0.00,,---,0.00,VWS V14.01,2013-02-04 13:41:00,
2013-02-04 07:47:00,34.7,21.5,28.85,North,353,0.0,3.6,58,0.00,,---,0.00,VWS V14.01,2013-02-04 13:47:00,
2013-02-04 07:52:00,35.2,20.7,28.85,NNE,18,0.0,0.0,55,0.00,,---,0.00,VWS V14.01,2013-02-04 13:52:00,
2013-02-04 07:58:00,35.4,20.4,28.85,North,10,2.7,2.7,54,0.00,,---,0.00,VWS V14.01,2013-02-04 13:58:00,
2013-02-04 08:04:00,36.1,20.7,28.85,NE,41,4.0,4.0,53,0.00,,---,0.00,VWS V14.01,2013-02-04 14:04:00,
2013-02-04 08:09:00,36.1,20.7,28.85,NE,40,0.0,2.2,53,0.00,,---,0.00,VWS V14.01,2013-02-04 14:09:00,
2013-02-04 08:15:00,36.1,20.7,28.85,East,82,0.0,0.0,53,0.00,,---,0.00,VWS V14.01,2013-02-04 14:15:00,
2013-02-04 08:21:00,37.9,21.0,28.85,NE,35,0.0,0.0,50,0.00,,---,0.00,VWS V14.01,2013-02-04 14:21:00,
2013-02-04 08:26:00,39.4,21.8,28.85,ESE,115,0.0,0.0,49,0.00,,---,0.00,VWS V14.01,2013-02-04 14:26:00,
2013-02-04 08:31:00,40.1,22.0,28.85,ENE,76,0.0,0.0,48,0.00,,---,0.00,VWS V14.01,2013-02-04 14:31:00,
2013-02-04 08:36:00,41.5,21.8,28.85,NNE,28,0.0,0.0,45,0.00,,---,0.00,VWS V14.01,2013-02-04 14:36:00,
2013-02-04 08:42:00,41.5,21.8,28.85,North,3,4.0,6.3,45,0.00,,---,0.00,VWS V14.01,2013-02-04 14:42:00,
2013-02-04 08:47:00,42.4,21.5,28.85,NE,46,0.0,0.0,43,0.00,,---,0.00,VWS V14.01,2013-02-04 14:47:00,
2013-02-04 08:53:00,43.7,21.6,28.88,NNE,28,3.6,3.6,41,0.00,,---,0.00,VWS V14.01,2013-02-04 14:53:00,
2013-02-04 08:59:00,44.1,21.3,28.88,ENE,78,0.0,2.7,40,0.00,,---,0.00,VWS V14.01,2013-02-04 14:59:00,
2013-02-04 09:04:00,44.8,21.4,28.88,West,273,3.6,5.4,39,0.00,,---,0.00,VWS V14.01,2013-02-04 15:04:00,
2013-02-04 09:10:00,45.1,21.7,28.88,NNW,338,4.0,4.0,39,0.00,,---,0.00,VWS V14.01,2013-02-04 15:10:00,
2013-02-04 09:15:00,45.7,22.2,28.88,North,357,5.8,5.8,39,0.00,,---,0.00,VWS V14.01,2013-02-04 15:15:00,
2013-02-04 09:21:00,45.5,21.4,28.88,ENE,58,4.9,4.9,38,0.00,,---,0.00,VWS V14.01,2013-02-04 15:21:00,
2013-02-04 09:27:00,46.0,21.9,28.88,North,7,4.9,4.9,38,0.00,,---,0.00,VWS V14.01,2013-02-04 15:27:00,
2013-02-04 09:32:00,46.0,21.9,28.88,NNE,23,5.4,5.4,38,0.00,,---,0.00,VWS V14.01,2013-02-04 15:32:00,
2013-02-04 09:37:00,46.6,22.4,28.88,NNE,15,4.9,4.9,38,0.00,,---,0.00,VWS V14.01,2013-02-04 15:37:00,
2013-02-04 09:42:00,46.6,22.4,28.88,NNE,16,5.4,6.3,38,0.00,,---,0.00,VWS V14.01,2013-02-04 15:42:00,
2013-02-04 09:48:00,47.3,22.4,28.88,North,2,4.0,5.4,37,0.00,,---,0.00,VWS V14.01,2013-02-04 15:48:00,
2013-02-04 09:53:00,47.3,22.4,28.88,ENE,64,3.1,3.1,37,0.00,,---,0.00,VWS V14.01,2013-02-04 15:53:00,
2013-02-04 09:59:00,48.0,23.0,28.88,NE,37,4.0,5.8,37,0.00,,---,0.00,VWS V14.01,2013-02-04 15:59:00,
2013-02-04 10:04:00,48.4,22.7,28.88,NE,36,3.1,3.1,36,0.00,,---,0.00,VWS V14.01,2013-02-04 16:04:00,
2013-02-04 10:10:00,48.4,22.7,28.88,East,82,3.6,3.6,36,0.00,,---,0.00,VWS V14.01,2013-02-04 16:10:00,
2013-02-04 10:15:00,48.4,22.7,28.88,NNE,13,0.0,4.0,36,0.00,,---,0.00,VWS V14.01,2013-02-04 16:15:00,
2013-02-04 10:21:00,48.6,22.8,28.88,NW,318,7.2,7.2,36,0.00,,---,0.00,VWS V14.01,2013-02-04 16:21:00,
2013-02-04 10:26:00,48.9,22.5,28.88,North,6,5.8,5.8,35,0.00,,---,0.00,VWS V14.01,2013-02-04 16:26:00,
2013-02-04 10:31:00,48.9,22.5,28.88,NE,38,4.9,4.9,35,0.00,,---,0.00,VWS V14.01,2013-02-04 16:31:00,
2013-02-04 10:37:00,48.4,22.0,28.91,NE,36,5.4,5.4,35,0.00,,---,0.00,VWS V14.01,2013-02-04 16:37:00,
2013-02-04 10:42:00,48.4,22.0,28.91,North,353,7.2,7.2,35,0.00,,---,0.00,VWS V14.01,2013-02-04 16:42:00,
2013-02-04 10:48:00,49.6,23.8,28.91,NNE,28,4.0,4.0,36,0.00,,---,0.00,VWS V14.01,2013-02-04 16:48:00,
2013-02-04 10:53:00,49.3,22.1,28.91,North,3,4.0,5.8,34,0.00,,---,0.00,VWS V14.01,2013-02-04 16:53:00,
2013-02-04 10:59:00,49.3,22.1,28.91,NE,52,5.8,5.8,34,0.00,,---,0.00,VWS V14.01,2013-02-04 16:59:00,
2013-02-04 11:04:00,49.3,22.1,28.91,NE,42,4.0,5.8,34,0.00,,---,0.00,VWS V14.01,2013-02-04 17:04:00,
2013-02-04 11:10:00,49.3,22.8,28.91,NE,44,2.7,2.7,35,0.00,,---,0.00,VWS V14.01,2013-02-04 17:10:00,
2013-02-04 11:15:00,49.3,22.8,28.91,North,0,4.9,4.9,35,0.00,,---,0.00,VWS V14.01,2013-02-04 17:15:00,
2013-02-04 11:20:00,48.9,21.1,28.91,NNE,30,4.9,4.9,33,0.00,,---,0.00,VWS V14.01,2013-02-04 17:20:00,
2013-02-04 11:25:00,48.9,21.1,28.91,NE,39,3.1,3.1,33,0.00,,---,0.00,VWS V14.01,2013-02-04 17:25:00,
2013-02-04 11:31:00,49.5,20.9,28.91,NE,49,5.4,5.4,32,0.00,,---,0.00,VWS V14.01,2013-02-04 17:31:00,
2013-02-04 11:37:00,48.2,19.7,28.91,NE,36,4.0,4.0,32,0.00,,---,0.00,VWS V14.01,2013-02-04 17:37:00,
2013-02-04 11:42:00,48.2,19.7,28.91,NE,35,5.8,6.7,32,0.00,,---,0.00,VWS V14.01,2013-02-04 17:42:00,
2013-02-04 11:48:00,48.2,19.7,28.94,NE,39,9.6,9.6,32,0.00,,---,0.00,VWS V14.01,2013-02-04 17:48:00,
2013-02-04 11:54:00,47.7,21.4,28.94,NNE,16,5.4,5.4,35,0.00,,---,0.00,VWS V14.01,2013-02-04 17:54:00,
2013-02-04 11:59:00,47.7,21.4,28.94,NNE,23,0.0,5.4,35,0.00,,---,0.00,VWS V14.01,2013-02-04 17:59:00,
2013-02-04 12:05:00,48.0,21.0,28.94,ENE,57,5.8,5.8,34,0.00,,---,0.00,VWS V14.01,2013-02-04 18:05:00,
2013-02-04 12:10:00,47.5,20.5,28.94,NE,54,4.0,4.0,34,0.00,,---,0.00,VWS V14.01,2013-02-04 18:10:00,
2013-02-04 12:15:00,47.5,20.5,28.94,NNE,30,7.6,8.3,34,0.00,,---,0.00,VWS V14.01,2013-02-04 18:15:00,
2013-02-04 12:20:00,46.4,19.6,28.94,NNE,23,3.6,7.6,34,0.00,,---,0.00,VWS V14.01,2013-02-04 18:20:00,
2013-02-04 12:26:00,46.2,20.1,28.94,ENE,62,5.4,5.4,35,0.00,,---,0.00,VWS V14.01,2013-02-04 18:26:00,
2013-02-04 12:31:00,46.2,20.1,28.94,NNE,19,8.1,8.1,35,0.00,,---,0.00,VWS V14.01,2013-02-04 18:31:00,
2013-02-04 12:36:00,46.8,19.9,28.94,East,94,3.1,3.1,34,0.00,,---,0.00,VWS V14.01,2013-02-04 18:36:00,
2013-02-04 12:41:00,46.8,19.9,28.94,SSE,157,5.4,5.4,34,0.00,,---,0.00,VWS V14.01,2013-02-04 18:41:00,
2013-02-04 12:47:00,47.8,20.9,28.94,NNE,27,5.8,5.8,34,0.00,,---,0.00,VWS V14.01,2013-02-04 18:47:00,
2013-02-04 12:52:00,48.0,19.6,28.94,ENE,65,4.0,4.0,32,0.00,,---,0.00,VWS V14.01,2013-02-04 18:52:00,
2013-02-04 12:58:00,48.0,19.6,28.94,NE,48,6.3,6.3,32,0.00,,---,0.00,VWS V14.01,2013-02-04 18:58:00,
2013-02-04 13:04:00,46.6,19.7,28.94,NNE,18,4.0,6.3,34,0.00,,---,0.00,VWS V14.01,2013-02-04 19:04:00,
2013-02-04 13:09:00,46.8,19.2,28.94,ENE,67,4.5,4.5,33,0.00,,---,0.00,VWS V14.01,2013-02-04 19:09:00,
2013-02-04 13:15:00,46.2,18.7,28.94,NNE,19,3.6,8.1,33,0.00,,---,0.00,VWS V14.01,2013-02-04 19:15:00,
2013-02-04 13:20:00,46.2,18.7,28.94,NNE,19,6.7,6.7,33,0.00,,---,0.00,VWS V14.01,2013-02-04 19:20:00,
2013-02-04 13:25:00,46.8,18.5,28.94,North,3,4.0,6.3,32,0.00,,---,0.00,VWS V14.01,2013-02-04 19:25:00,
2013-02-04 13:30:00,45.3,18.6,28.94,NNE,32,5.4,5.4,34,0.00,,---,0.00,VWS V14.01,2013-02-04 19:30:00,
2013-02-04 13:36:00,45.9,17.7,28.91,NNE,21,4.0,4.0,32,0.00,,---,0.00,VWS V14.01,2013-02-04 19:36:00,
2013-02-04 13:41:00,45.1,17.1,28.91,NNE,32,0.0,0.0,32,0.00,,---,0.00,VWS V14.01,2013-02-04 19:41:00,
2013-02-04 13:47:00,45.1,17.1,28.94,ESE,103,3.1,3.1,32,0.00,,---,0.00,VWS V14.01,2013-02-04 19:47:00,
2013-02-04 13:52:00,45.1,17.1,28.94,NE,43,3.1,3.6,32,0.00,,---,0.00,VWS V14.01,2013-02-04 19:52:00,
2013-02-04 13:58:00,45.5,18.1,28.94,North,2,4.0,4.0,33,0.00,,---,0.00,VWS V14.01,2013-02-04 19:58:00,
2013-02-04 14:03:00,46.0,18.6,28.91,ENE,73,4.0,4.0,33,0.00,,---,0.00,VWS V14.01,2013-02-04 20:03:00,
2013-02-04 14:08:00,46.2,18.0,28.91,NNW,345,4.9,4.9,32,0.00,,---,0.00,VWS V14.01,2013-02-04 20:08:00,
2013-02-04 14:14:00,46.2,18.0,28.91,NNE,15,3.1,3.1,32,0.00,,---,0.00,VWS V14.01,2013-02-04 20:14:00,
2013-02-04 14:19:00,45.5,18.1,28.91,NE,36,7.6,7.6,33,0.00,,---,0.00,VWS V14.01,2013-02-04 20:19:00,
2013-02-04 14:25:00,45.5,18.1,28.91,East,96,2.7,2.7,33,0.00,,---,0.00,VWS V14.01,2013-02-04 20:25:00,
2013-02-04 14:30:00,45.5,17.4,28.91,NNE,12,5.4,5.4,32,0.00,,---,0.00,VWS V14.01,2013-02-04 20:30:00,
2013-02-04 14:35:00,45.5,17.4,28.91,ENE,59,0.0,0.0,32,0.00,,---,0.00,VWS V14.01,2013-02-04 20:35:00,
2013-02-04 14:40:00,44.6,16.6,28.91,NNE,15,5.4,5.4,32,0.00,,---,0.00,VWS V14.01,2013-02-04 20:40:00,
2013-02-04 14:46:00,44.4,17.1,28.91,ENE,73,10.5,10.5,33,0.00,,---,0.00,VWS V14.01,2013-02-04 20:46:00,
2013-02-04 14:51:00,44.4,17.1,28.91,North,8,0.0,2.7,33,0.00,,---,0.00,VWS V14.01,2013-02-04 20:51:00,
2013-02-04 14:57:00,43.5,17.0,28.91,East,93,2.2,2.7,34,0.00,,---,0.00,VWS V14.01,2013-02-04 20:57:00,
2013-02-04 15:03:00,43.5,17.0,28.91,ENE,58,4.0,4.0,34,0.00,,---,0.00,VWS V14.01,2013-02-04 21:03:00,
2013-02-04 15:08:00,43.7,17.2,28.91,NNE,15,3.6,3.6,34,0.00,,---,0.00,VWS V14.01,2013-02-04 21:08:00,
2013-02-04 15:14:00,43.7,17.2,28.91,East,101,0.0,0.0,34,0.00,,---,0.00,VWS V14.01,2013-02-04 21:14:00,
2013-02-04 15:19:00,43.9,16.7,28.91,NE,46,3.6,3.6,33,0.00,,---,0.00,VWS V14.01,2013-02-04 21:19:00,
2013-02-04 15:25:00,43.7,16.5,28.91,NE,54,2.7,4.0,33,0.00,,---,0.00,VWS V14.01,2013-02-04 21:25:00,
2013-02-04 15:31:00,43.0,16.5,28.91,SE,129,0.0,2.7,34,0.00,,---,0.00,VWS V14.01,2013-02-04 21:31:00,
2013-02-04 15:36:00,43.0,16.5,28.94,NE,46,3.1,3.1,34,0.00,,---,0.00,VWS V14.01,2013-02-04 21:36:00,
2013-02-04 15:41:00,43.0,15.9,28.94,NE,56,2.7,2.7,33,0.00,,---,0.00,VWS V14.01,2013-02-04 21:41:00,
2013-02-04 15:46:00,42.8,16.4,28.94,SSE,151,0.0,0.0,34,0.00,,---,0.00,VWS V14.01,2013-02-04 21:46:00,
2013-02-04 15:51:00,42.8,16.4,28.94,NE,51,2.2,3.1,34,0.00,,---,0.00,VWS V14.01,2013-02-04 21:51:00,
2013-02-04 15:57:00,42.1,16.4,28.94,NNE,23,2.7,3.1,35,0.00,,---,0.00,VWS V14.01,2013-02-04 21:57:00,
2013-02-04 16:03:00,42.1,15.8,28.94,NE,36,2.7,4.0,34,0.00,,---,0.00,VWS V14.01,2013-02-04 22:03:00,
2013-02-04 16:08:00,42.1,15.8,28.94,NE,47,3.6,3.6,34,0.00,,---,0.00,VWS V14.01,2013-02-04 22:08:00,
2013-02-04 16:14:00,41.5,15.9,28.91,NNE,15,4.0,4.0,35,0.00,,---,0.00,VWS V14.01,2013-02-04 22:14:00,
2013-02-04 16:19:00,40.6,15.8,28.91,NNE,14,0.0,2.2,36,0.00,,---,0.00,VWS V14.01,2013-02-04 22:19:00,
2013-02-04 16:25:00,40.6,15.8,28.91,NE,43,3.1,3.1,36,0.00,,---,0.00,VWS V14.01,2013-02-04 22:25:00,
2013-02-04 16:31:00,39.7,15.0,28.91,WNW,303,4.0,4.0,36,0.00,,---,0.00,VWS V14.01,2013-02-04 22:31:00,
2013-02-04 16:36:00,39.7,15.0,28.94,NNE,18,2.7,3.1,36,0.00,,---,0.00,VWS V14.01,2013-02-04 22:36:00,
2013-02-04 16:42:00,38.3,15.5,28.94,NNE,27,3.1,3.1,39,0.00,,---,0.00,VWS V14.01,2013-02-04 22:42:00,
2013-02-04 16:47:00,38.1,15.4,28.91,NNE,15,5.8,5.8,39,0.00,,---,0.00,VWS V14.01,2013-02-04 22:47:00,
2013-02-04 16:53:00,38.1,15.4,28.91,NNE,29,0.0,0.0,39,0.00,,---,0.00,VWS V14.01,2013-02-04 22:53:00,
2013-02-04 16:58:00,37.4,15.3,28.91,NNE,23,3.1,3.1,40,0.00,,---,0.00,VWS V14.01,2013-02-04 22:58:00,
2013-02-04 17:03:00,37.0,15.0,28.91,SSE,166,0.0,0.0,40,0.00,,---,0.00,VWS V14.01,2013-02-04 23:03:00,
2013-02-04 17:09:00,36.9,15.4,28.91,NNE,22,0.0,0.0,41,0.00,,---,0.00,VWS V14.01,2013-02-04 23:09:00,
2013-02-04 17:14:00,36.9,15.4,28.91,NNE,23,0.0,0.0,41,0.00,,---,0.00,VWS V14.01,2013-02-04 23:14:00,
2013-02-04 17:19:00,36.9,15.4,28.91,NNE,13,5.8,5.8,41,0.00,,---,0.00,VWS V14.01,2013-02-04 23:19:00,
2013-02-04 17:24:00,36.1,14.7,28.91,NNE,31,0.0,0.0,41,0.00,,---,0.00,VWS V14.01,2013-02-04 23:24:00,
2013-02-04 17:30:00,35.4,14.6,28.91,NE,42,0.0,0.0,42,0.00,,---,0.00,VWS V14.01,2013-02-04 23:30:00,
2013-02-04 17:35:00,35.2,14.5,28.91,East,89,0.0,0.0,42,0.00,,---,0.00,VWS V14.01,2013-02-04 23:35:00,
2013-02-04 17:40:00,35.2,14.5,28.91,SSE,152,0.0,0.0,42,0.00,,---,0.00,VWS V14.01,2013-02-04 23:40:00,
2013-02-04 17:46:00,34.7,14.5,28.91,ESE,120,0.0,0.0,43,0.00,,---,0.00,VWS V14.01,2013-02-04 23:46:00,
2013-02-04 17:51:00,34.0,14.4,28.91,East,83,0.0,0.0,44,0.00,,---,0.00,VWS V14.01,2013-02-04 23:51:00,
2013-02-04 17:56:00,33.8,14.2,28.91,East,92,0.0,0.0,44,0.00,,---,0.00,VWS V14.01,2013-02-04 23:56:00,
2013-02-04 18:01:00,33.6,14.6,28.91,East,82,0.0,0.0,45,0.00,,---,0.00,VWS V14.01,2013-02-05 00:01:00,
2013-02-04 18:06:00,33.6,14.6,28.91,NE,54,0.0,0.0,45,0.00,,---,0.00,VWS V14.01,2013-02-05 00:06:00,
2013-02-04 18:12:00,32.5,14.1,28.91,South,188,0.0,0.0,46,0.00,,---,0.00,VWS V14.01,2013-02-05 00:12:00,
2013-02-04 18:17:00,32.4,13.9,28.91,South,188,0.0,0.0,46,0.00,,---,0.00,VWS V14.01,2013-02-05 00:17:00,
2013-02-04 18:22:00,31.8,13.9,28.91,NE,51,0.0,0.0,47,0.00,,---,0.00,VWS V14.01,2013-02-05 00:22:00,
2013-02-04 18:27:00,31.6,14.2,28.91,SSE,158,0.0,0.0,48,0.00,,---,0.00,VWS V14.01,2013-02-05 00:27:00,
2013-02-04 18:32:00,31.6,14.2,28.91,NE,54,0.0,0.0,48,0.00,,---,0.00,VWS V14.01,2013-02-05 00:32:00,
2013-02-04 18:38:00,31.1,15.1,28.91,ENE,68,0.0,0.0,51,0.00,,---,0.00,VWS V14.01,2013-02-05 00:38:00,
2013-02-04 18:44:00,31.1,15.1,28.91,ENE,68,0.0,0.0,51,0.00,,---,0.00,VWS V14.01,2013-02-05 00:44:00,
2013-02-04 18:49:00,30.6,14.6,28.94,NW,310,0.0,0.0,51,0.00,,---,0.00,VWS V14.01,2013-02-05 00:49:00,
2013-02-04 18:54:00,30.6,14.6,28.94,NW,310,0.0,0.0,51,0.00,,---,0.00,VWS V14.01,2013-02-05 00:54:00,
2013-02-04 18:59:00,30.0,14.1,28.94,NW,310,0.0,0.0,51,0.00,,---,0.00,VWS V14.01,2013-02-05 00:59:00,
2013-02-04 19:05:00,29.7,14.2,28.94,NW,310,0.0,0.0,52,0.00,,---,0.00,VWS V14.01,2013-02-05 01:05:00,
2013-02-04 19:10:00,29.5,14.5,28.94,NW,310,0.0,0.0,53,0.00,,---,0.00,VWS V14.01,2013-02-05 01:10:00,
2013-02-04 19:16:00,29.3,14.3,28.94,NNW,328,0.0,0.0,53,0.00,,---,0.00,VWS V14.01,2013-02-05 01:16:00,
2013-02-04 19:21:00,29.3,14.3,28.94,NNE,23,0.0,0.0,53,0.00,,---,0.00,VWS V14.01,2013-02-05 01:21:00,
2013-02-04 19:26:00,28.9,14.4,28.94,NNE,17,0.0,0.0,54,0.00,,---,0.00,VWS V14.01,2013-02-05 01:26:00,
2013-02-04 19:31:00,28.6,13.6,28.94,NNE,17,0.0,0.0,53,0.00,,---,0.00,VWS V14.01,2013-02-05 01:31:00,
2013-02-04 19:37:00,28.6,14.1,28.94,NE,37,0.0,0.0,54,0.00,,---,0.00,VWS V14.01,2013-02-05 01:37:00,
2013-02-04 19:43:00,28.4,14.3,28.94,ENE,67,0.0,0.0,55,0.00,,---,0.00,VWS V14.01,2013-02-05 01:43:00,
2013-02-04 19:48:00,28.4,15.1,28.94,ENE,67,0.0,0.0,57,0.00,,---,0.00,VWS V14.01,2013-02-05 01:48:00,
2013-02-04 19:54:00,28.4,15.1,28.94,East,88,0.0,0.0,57,0.00,,---,0.00,VWS V14.01,2013-02-05 01:54:00,
2013-02-04 19:59:00,28.2,15.0,28.94,West,264,0.0,0.0,57,0.00,,---,0.00,VWS V14.01,2013-02-05 01:59:00,
2013-02-04 20:04:00,28.0,14.8,28.94,SSW,196,0.0,0.0,57,0.00,,---,0.00,VWS V14.01,2013-02-05 02:04:00,
2013-02-04 20:09:00,27.9,15.0,28.94,SSW,210,0.0,0.0,58,0.00,,---,0.00,VWS V14.01,2013-02-05 02:09:00,
2013-02-04 20:15:00,27.9,15.0,28.94,West,275,0.0,0.0,58,0.00,,---,0.00,VWS V14.01,2013-02-05 02:15:00,
2013-02-04 20:20:00,27.5,14.7,28.94,West,274,0.0,0.0,58,0.00,,---,0.00,VWS V14.01,2013-02-05 02:20:00,
2013-02-04 20:26:00,27.5,14.7,28.94,SW,224,0.0,0.0,58,0.00,,---,0.00,VWS V14.01,2013-02-05 02:26:00,
2013-02-04 20:31:00,27.1,14.3,28.94,SW,224,0.0,0.0,58,0.00,,---,0.00,VWS V14.01,2013-02-05 02:31:00,
2013-02-04 20:37:00,27.1,14.3,28.94,SW,224,0.0,0.0,58,0.00,,---,0.00,VWS V14.01,2013-02-05 02:37:00,
2013-02-04 20:42:00,27.1,14.3,28.94,SW,224,0.0,0.0,58,0.00,,---,0.00,VWS V14.01,2013-02-05 02:42:00,
2013-02-04 20:48:00,26.8,14.0,28.94,SW,224,0.0,0.0,58,0.00,,---,0.00,VWS V14.01,2013-02-05 02:48:00,
2013-02-04 20:53:00,26.8,14.0,28.94,SW,224,0.0,0.0,58,0.00,,---,0.00,VWS V14.01,2013-02-05 02:53:00,
2013-02-04 20:58:00,26.2,13.5,28.94,SW,224,0.0,0.0,58,0.00,,---,0.00,VWS V14.01,2013-02-05 02:58:00,
2013-02-04 21:04:00,26.1,13.3,28.94,SW,224,0.0,0.0,58,0.00,,---,0.00,VWS V14.01,2013-02-05 03:04:00,
2013-02-04 21:09:00,25.9,13.1,28.94,SW,224,0.0,0.0,58,0.00,,---,0.00,VWS V14.01,2013-02-05 03:09:00,
2013-02-04 21:15:00,25.9,13.9,28.94,SW,224,0.0,0.0,60,0.00,,---,0.00,VWS V14.01,2013-02-05 03:15:00,
2013-02-04 21:20:00,25.9,13.9,28.94,SW,224,0.0,0.0,60,0.00,,---,0.00,VWS V14.01,2013-02-05 03:20:00,
2013-02-04 21:26:00,25.5,13.6,28.94,SW,228,0.0,0.0,60,0.00,,---,0.00,VWS V14.01,2013-02-05 03:26:00,
2013-02-04 21:31:00,25.5,13.6,28.94,SW,228,0.0,0.0,60,0.00,,---,0.00,VWS V14.01,2013-02-05 03:31:00,
2013-02-04 21:37:00,25.5,14.0,28.97,SW,228,0.0,0.0,61,0.00,,---,0.00,VWS V14.01,2013-02-05 03:37:00,
2013-02-04 21:43:00,25.5,14.3,28.97,SW,228,0.0,0.0,62,0.00,,---,0.00,VWS V14.01,2013-02-05 03:43:00,
2013-02-04 21:48:00,25.3,14.2,28.97,SW,228,0.0,0.0,62,0.00,,---,0.00,VWS V14.01,2013-02-05 03:48:00,
2013-02-04 21:53:00,25.3,14.2,28.97,SW,228,0.0,0.0,62,0.00,,---,0.00,VWS V14.01,2013-02-05 03:53:00,
2013-02-04 21:58:00,25.2,14.0,28.97,SW,228,0.0,0.0,62,0.00,,---,0.00,VWS V14.01,2013-02-05 03:58:00,
2013-02-04 22:04:00,25.0,13.8,28.97,SW,228,0.0,0.0,62,0.00,,---,0.00,VWS V14.01,2013-02-05 04:04:00,
2013-02-04 22:09:00,24.6,13.8,28.97,SW,228,0.0,0.0,63,0.00,,---,0.00,VWS V14.01,2013-02-05 04:09:00,
2013-02-04 22:15:00,24.4,13.7,28.97,SW,228,0.0,0.0,63,0.00,,---,0.00,VWS V14.01,2013-02-05 04:15:00,
2013-02-04 22:20:00,24.4,13.7,28.97,SW,228,0.0,0.0,63,0.00,,---,0.00,VWS V14.01,2013-02-05 04:20:00,
2013-02-04 22:25:00,24.4,13.7,28.94,SW,228,0.0,0.0,63,0.00,,---,0.00,VWS V14.01,2013-02-05 04:25:00,
2013-02-04 22:31:00,24.3,13.9,28.94,SW,228,0.0,0.0,64,0.00,,---,0.00,VWS V14.01,2013-02-05 04:31:00,
2013-02-04 22:37:00,24.4,14.4,28.94,SW,228,0.0,0.0,65,0.00,,---,0.00,VWS V14.01,2013-02-05 04:37:00,
2013-02-04 22:43:00,24.3,13.9,28.94,SW,228,0.0,0.0,64,0.00,,---,0.00,VWS V14.01,2013-02-05 04:43:00,
2013-02-04 22:49:00,24.1,13.7,28.94,SW,228,0.0,0.0,64,0.00,,---,0.00,VWS V14.01,2013-02-05 04:49:00,
2013-02-04 22:54:00,24.1,13.7,28.94,SW,228,0.0,0.0,64,0.00,,---,0.00,VWS V14.01,2013-02-05 04:54:00,
2013-02-04 23:00:00,23.9,14.2,28.94,SW,228,0.0,0.0,66,0.00,,---,0.00,VWS V14.01,2013-02-05 05:00:00,
2013-02-04 23:01:00,23.9,14.2,28.94,SW,228,0.0,0.0,66,0.00,,---,0.00,VWS V14.01,2013-02-05 05:01:00,
2013-02-04 23:02:00,23.9,14.2,28.91,SW,228,0.0,0.0,66,0.00,,---,0.00,VWS V14.01,2013-02-05 05:02:00,
2013-02-04 23:04:00,23.9,14.2,28.91,SW,228,0.0,0.0,66,0.00,,---,0.00,VWS V14.01,2013-02-05 05:04:00,
2013-02-04 23:09:00,23.7,14.0,28.91,SW,228,0.0,0.0,66,0.00,,---,0.00,VWS V14.01,2013-02-05 05:09:00,
2013-02-04 23:15:00,23.9,14.2,28.91,SW,228,0.0,0.0,66,0.00,,---,0.00,VWS V14.01,2013-02-05 05:15:00,
2013-02-04 23:21:00,23.7,14.0,28.91,SW,228,0.0,0.0,66,0.00,,---,0.00,VWS V14.01,2013-02-05 05:21:00,
2013-02-04 23:26:00,23.9,14.6,28.91,SW,228,0.0,0.0,67,0.00,,---,0.00,VWS V14.01,2013-02-05 05:26:00,
2013-02-04 23:32:00,23.9,14.6,28.91,SW,228,0.0,0.0,67,0.00,,---,0.00,VWS V14.01,2013-02-05 05:32:00,
2013-02-04 23:38:00,23.7,14.4,28.91,SW,228,0.0,0.0,67,0.00,,---,0.00,VWS V14.01,2013-02-05 05:38:00,
2013-02-04 23:43:00,24.3,15.2,28.91,SW,228,0.0,0.0,68,0.00,,---,0.00,VWS V14.01,2013-02-05 05:43:00,
2013-02-04 23:49:00,24.3,15.2,28.91,SW,228,0.0,0.0,68,0.00,,---,0.00,VWS V14.01,2013-02-05 05:49:00,
2013-02-04 23:54:00,24.4,15.4,28.91,SW,228,0.0,0.0,68,0.00,,---,0.00,VWS V14.01,2013-02-05 05:54:00,
2013-02-04 23:59:00,24.4,15.7,28.91,SW,228,0.0,0.0,69,0.00,,---,0.00,VWS V14.01,2013-02-05 05:59:00,